Regional Weather Roundup
Issued by NWS

Home | Current Version | Previous Version | Text Only | Print | Product List | Glossary Off
Versions: 1 2 3 4 5 6 7 8 9 10 11 12 13 14 15 16 17 18 19 20 21 22 23 24 25 26 27

000
ASUS45 KPSR 300610
RWRAZ

ARIZONA HOURLY REGIONAL WEATHER ROUNDUP
NATIONAL WEATHER SERVICE PHOENIX AZ
1100 PM MST THU SEP 29 2016

NOTE: FAIR INDICATES FEW OR NO CLOUDS BELOW 12,000 FEET WITH NO
SIGNIFICANT WEATHER AND/OR OBSTRUCTIONS TO VISIBILITY.

AZZ001>003-036-300700-
NORTHWEST ARIZONA

CITY           SKY/WX    TMP DP  RH WIND       PRES   REMARKS
BULLHEAD CITY  PTCLDY    84  48  28 E5        30.00R
KINGMAN        CLOUDY    73  49  42 SE14      30.18S
6HR MIN TEMP:  71; 6HR MAX TEMP:  82;

$$

AZZ004>008-015-016-018-300700-
NORTH CENTRAL ARIZONA

CITY           SKY/WX    TMP DP  RH WIND       PRES   REMARKS
GRAND CANYON   PTCLDY    51  48  89 CALM      30.40S
6HR MIN TEMP:  51; 6HR MAX TEMP:  58; 6HR PCP:  0.31;

PRESCOTT       CLEAR     56  52  86 SW6       30.30S
6HR MIN TEMP:  56; 6HR MAX TEMP:  71;

FLAGSTAFF      FOG       51  51 100 E6        30.43S VSB 3/4
6HR MIN TEMP:  46; 6HR MAX TEMP:  55;

PAYSON         CLEAR     59  52  77 CALM      30.33S
PAGE           MOCLDY    62  59  90 CALM      30.28F
6HR MIN TEMP:  62; 6HR MAX TEMP:  66; 6HR PCP:  0.01;

$$

AZZ009>014-017-300700-
NORTHEAST ARIZONA

CITY           SKY/WX    TMP DP  RH WIND       PRES   REMARKS
WINSLOW        CLEAR     52  50  93 CALM      30.35R
6HR MIN TEMP:  52; 6HR MAX TEMP:  65;

SAINT JOHNS    CLOUDY    57  54  89 E7        30.34F
6HR MIN TEMP:  57; 6HR MAX TEMP:  63;

WINDOW ROCK    FOG       49  47  93 CALM      30.44S VSB 1/4
6HR MIN TEMP:  47; 6HR MAX TEMP:  57;

SHOW LOW       PTCLDY    50  48  93 S3        30.39S
$$

AZZ023-300700-
GREATER PHOENIX AREA

CITY           SKY/WX    TMP DP  RH WIND       PRES   REMARKS
PHOENIX        CLEAR     82  58  43 SE6       30.02R
6HR MIN TEMP:  82; 6HR MAX TEMP:  92;

BUCKEYE        CLEAR     77  54  44 N7        30.03R
LUKE AFB       CLEAR     77  59  52 N6        30.02R
6HR MIN TEMP:  77; 6HR MAX TEMP:  92;

DEER VALLEY    CLEAR     79  53  40 NE3       30.04R
6HR MIN TEMP:  79; 6HR MAX TEMP:  92;

SCOTTSDALE     CLEAR     80  53  39 CALM      30.05S
6HR MIN TEMP:  80; 6HR MAX TEMP:  92;

MESA-GATEWAY   CLEAR     79  57  47 SE6       30.05S
$$

AZZ027-028-300700-
SOUTHWEST MARICOPA COUNTY AND PINAL COUNTY

CITY           SKY/WX    TMP DP  RH WIND       PRES   REMARKS
CASA GRANDE    CLEAR     79  55  44 E3        30.07R
6HR MIN TEMP:  79; 6HR MAX TEMP:  91;

GILA BEND      FAIR      79  52  38 S7        30.00R
6HR MIN TEMP:  79; 6HR MAX TEMP:  94;

$$

AZZ503-504-507>509-300700-
SOUTHEAST ARIZONA

CITY           SKY/WX    TMP DP  RH WIND       PRES   REMARKS
TUCSON         PTCLDY    71  63  75 E6        30.15R
6HR MIN TEMP:  71; 6HR MAX TEMP:  88; 6HR PCP:  0.04;

DAVIS-MONTHAN  PTCLDY    70  62  76 SE12      30.15R
6HR MIN TEMP:  67; 6HR MAX TEMP:  87; 6HR PCP:  0.65;

NOGALES        CLEAR     66  59  78 E3        30.22R
6HR MIN TEMP:  66; 6HR MAX TEMP:  83; 6HR PCP: TRACE;

SIERRA VISTA   MOCLDY    63  60  90 SE3       30.29R
6HR MIN TEMP:  62; 6HR MAX TEMP:  65;

DOUGLAS        MOCLDY    64  61  90 N10       30.25R
6HR MIN TEMP:  64; 6HR MAX TEMP:  76; 6HR PCP:  0.14;

SAFFORD        MOCLDY    68  61  78 E13       30.23R
6HR MIN TEMP:  67; 6HR MAX TEMP:  84; 6HR PCP:  0.15;

$$

AZZ020-021-025-026-031-300700-
SOUTHWEST ARIZONA

CITY           SKY/WX    TMP DP  RH WIND       PRES   REMARKS
YUMA           PTCLDY    86  54  33 NW3       29.96R
6HR MIN TEMP:  86; 6HR MAX TEMP:  96;

$$

CAZ031-033-041-043-047-048-061-300700-
SOUTHERN CALIFORNIA

CITY           SKY/WX    TMP DP  RH WIND       PRES   REMARKS
DOWNTOWN L.A.  CLEAR     71  60  68 CALM      30.03R
6HR MIN TEMP:  71; 6HR MAX TEMP:  84;

L.A. AIRPORT   CLEAR     70  62  76 SW7       30.03R
6HR MIN TEMP:  70; 6HR MAX TEMP:  76;

SAN DIEGO      PTCLDY    74  66  76 CALM      30.04R
6HR MIN TEMP:  74; 6HR MAX TEMP:  81;

BURBANK        CLEAR     75  57  53 SE9       30.04R
6HR MIN TEMP:  75; 6HR MAX TEMP:  91;

ONTARIO        CLEAR     76  50  40 W3        30.06R
6HR MIN TEMP:  74; 6HR MAX TEMP:  92;

RIVERSIDE      CLEAR     76  55  48 CALM      30.06R
6HR MIN TEMP:  76; 6HR MAX TEMP:  93;

PALM SPRINGS   PTCLDY    88  51  28 NW6       30.00R
6HR MIN TEMP:  86; 6HR MAX TEMP:  94;

EL CENTRO NAS  PTCLDY    78  53  41 W8        29.97R
6HR MIN TEMP:  78; 6HR MAX TEMP:  92;

IMPERIAL       CLEAR     81  57  43 W7        29.94S
6HR MIN TEMP:  81; 6HR MAX TEMP:  93;

BLYTHE         CLEAR     82  51  34 CALM      29.98R
6HR MIN TEMP:  81; 6HR MAX TEMP:  94;

NEEDLES        PTCLDY    85  48  27 CALM      30.01R
6HR MIN TEMP:  85; 6HR MAX TEMP:  97;

$$

NVZ020-UTZ003-300700-
SOUTHERN NEVADA-UTAH

CITY           SKY/WX    TMP DP  RH WIND       PRES   REMARKS
LAS VEGAS      PTCLDY    80  43  26 W5        30.07R
6HR MIN TEMP:  80; 6HR MAX TEMP:  89;

SALT LAKE CITY MOCLDY    66  51  58 S12       30.18S
6HR MIN TEMP:  63; 6HR MAX TEMP:  75;

$$

NMZ009-TXZ055-300700-
NEW MEXICO-WEST TEXAS

CITY           SKY/WX    TMP DP  RH WIND       PRES   REMARKS
ALBUQUERQUE    CLOUDY    60  58  92 SW5       30.42R
6HR MIN TEMP:  59; 6HR MAX TEMP:  67; 6HR PCP:  0.02;

EL PASO        MOCLDY    72  43  35 CALM      30.27R
6HR MIN TEMP:  72; 6HR MAX TEMP:  84;

$$


........................KEY........................
SKY/WX - SKY CONDITION/WEATHER
TMP    - TEMPERATURE IN FAHRENHEIT
DP     - DEW POINT IN FAHRENHEIT
RH     - RELATIVE HUMIDITY IN PERCENT
WIND   - DIRECTION AND SPEED IN MILES PER HOUR (MPH)
VRB    - VARIABLE WIND DIRECTION
PRES   - MEAN SEA LEVEL PRESSURE IN INCHES OF MERCURY
         F - FALLING PRESSURE   R - RISING PRESSURE
         S - STEADY PRESSURE
VSB    - VISIBILITY IN MILES
HX     - HEAT INDEX IN FAHRENHEIT
WCI    - WIND CHILL INDEX IN FAHRENHEIT
TC     - TEMPERATURE IN CELSIUS WHICH IS ALSO KNOWN AS
         TEMPERATURE IN CENTIGRADE
AFB    - AIR FORCE BASE
         LUKE AFB IS LUKE AIR FORCE BASE
         DAVIS-MONTHAN IS DAVIS-MONTHAN AIR FORCE BASE
NAS    - NAVAL AIR STATION
         EL CENTRO NAS IS EL CENTRO NAVAL AIR STATION
N/A    - NOT AVAILABLE





USA.gov is the U.S. government's official web portal to all federal, state and local government web resources and services.